Weather History for Bangor, ME

Change the Weather History Date:

Tuesday, September 23, 2014

  Actual Average Record
Temperature  
Mean Temperature 53 °F 56 °F  
Max Temperature 64 °F 67 °F 80 °F (1989)
Min Temperature 42 °F 45 °F 29 °F (1945)
Degree Days  
Heating Degree Days 12 9  
Month to date heating degree days 169 133  
Since 1 July heating degree days 190 196  
Cooling Degree Days 0 0  
Month to date cooling degree days 42 21  
Year to date cooling degree days 356 315  
Growing Degree Days 2 (Base 50)    
Moisture  
Dew Point 40 °F    
Average Humidity 65    
Maximum Humidity 86    
Minimum Humidity 43    
Precipitation  
Precipitation 0.00 in 0.14 in 3.23 in (1981)
Month to date precipitation 0.88 2.81  
Year to date precipitation 28.62 29.06  
Snow  
Snow 0.00 in 0.00 in 0.00 in (2002)
Month to date snowfall 0.0 0.0  
Since 1 July snowfall 0.0 0.0  
Since 1 September snowfall 0.0 0.0  
Snow Depth 0.00 in    
Sea Level Pressure  
Sea Level Pressure 30.18 in    
Wind  
Wind Speed 5 mph (West)    
Max Wind Speed 21 mph    
Max Gust Speed 31 mph    
Visibility 10 miles    
Events      
T = Trace of Precipitation, MM = Missing Value Source: NWS Daily Summary

Daily Weather History Graph

Daily Weather History Graph

Search for Another Location

Airport:

Trip Planner

Search our weather history database for the weather conditions in past years. The results will help you decide how hot, cold, wet, or windy it might be!

Date:

Astronomy

Sep. 23, 2014 Rise Set
Actual Time 6:23 AM EDT 6:30 PM EDT
Civil Twilight 5:54 AM EDT 7:00 PM EDT
Nautical Twilight 5:20 AM EDT 7:34 PM EDT
Astronomical Twilight 4:44 AM EDT 8:09 PM EDT
Moon 5:44 AM EDT (9/23) 6:07 PM EDT (9/23)
Length of Visible Light 13h 05m
Length of Day
12h 07m
Waning Crescent, 0% of the Moon is Illuminated
Sep 23
Waning Crescent
Sep 24
New
Oct 1
First Quarter
Oct 8
Full
Oct 15
Last Quarter

Hourly Weather History & Observations

Time (EDT) Temp. Windchill Dew Point Humidity Pressure Visibility Wind Dir Wind Speed Gust Speed Precip Events Conditions
12:53 AM 48.0 °F - 36.0 °F 63% 29.99 in 10.0 mi Calm Calm - N/A   Clear
1:53 AM 46.0 °F 44.8 °F 36.0 °F 68% 30.01 in 10.0 mi WSW 3.5 mph - N/A   Clear
2:53 AM 44.1 °F 41.5 °F 37.0 °F 76% 30.03 in 10.0 mi WSW 4.6 mph - N/A   Clear
3:53 AM 43.0 °F - 36.0 °F 76% 30.05 in 10.0 mi Calm Calm - N/A   Clear
4:53 AM 43.0 °F 40.3 °F 36.0 °F 76% 30.07 in 10.0 mi West 4.6 mph - N/A   Clear
5:53 AM 43.0 °F 39.5 °F 36.0 °F 76% 30.09 in 10.0 mi West 5.8 mph - N/A   Clear
6:53 AM 42.1 °F 40.2 °F 36.0 °F 79% 30.12 in 10.0 mi WSW 3.5 mph - N/A   Clear
7:53 AM 46.0 °F 43.9 °F 37.0 °F 71% 30.14 in 10.0 mi WSW 4.6 mph - N/A   Clear
8:53 AM 50.0 °F - 37.0 °F 61% 30.17 in 10.0 mi West 8.1 mph - N/A   Partly Cloudy
9:53 AM 55.0 °F - 37.9 °F 53% 30.16 in 10.0 mi West 10.4 mph - N/A   Partly Cloudy
10:53 AM 57.0 °F - 39.0 °F 51% 30.18 in 10.0 mi WNW 12.7 mph 18.4 mph N/A   Mostly Cloudy
11:53 AM 60.1 °F - 39.0 °F 46% 30.17 in 10.0 mi WNW 11.5 mph - N/A   Mostly Cloudy
12:53 PM 60.1 °F - 39.0 °F 46% 30.17 in 10.0 mi NW 15.0 mph 20.7 mph N/A   Mostly Cloudy
1:53 PM 63.0 °F - 39.9 °F 43% 30.16 in 10.0 mi West 15.0 mph 24.2 mph N/A   Partly Cloudy
2:53 PM 63.0 °F - 39.9 °F 43% 30.17 in 10.0 mi NW 17.3 mph 24.2 mph N/A   Partly Cloudy
3:53 PM 62.1 °F - 39.9 °F 44% 30.19 in 10.0 mi West 12.7 mph 20.7 mph N/A   Scattered Clouds
4:53 PM 63.0 °F - 42.1 °F 46% 30.21 in 10.0 mi West 6.9 mph - N/A   Mostly Cloudy
5:53 PM 61.0 °F - 43.0 °F 52% 30.23 in 10.0 mi West 4.6 mph - N/A   Mostly Cloudy
6:53 PM 54.0 °F - 44.1 °F 69% 30.26 in 10.0 mi SW 4.6 mph - N/A   Partly Cloudy
7:53 PM 50.0 °F - 43.0 °F 77% 30.30 in 10.0 mi Calm Calm - N/A   Partly Cloudy
8:53 PM 50.0 °F - 44.1 °F 80% 30.33 in 10.0 mi WSW 4.6 mph - N/A   Partly Cloudy
9:53 PM 50.0 °F - 44.1 °F 80% 30.35 in 10.0 mi SW 5.8 mph - N/A   Clear
10:53 PM 50.0 °F - 44.1 °F 80% 30.38 in 10.0 mi West 5.8 mph - N/A   Clear
11:53 PM 46.9 °F - 42.1 °F 83% 30.41 in 10.0 mi West 3.5 mph - N/A   Partly Cloudy